Location: Ebenezer
(18.2167°N, 63.0667°W)
Time: 22:07:18
(UTC+00:00)

Okean-O - Pass Details

Date: 26 January 2020
Orbit: 639 x 640 km, 98.2° (Epoch: 19 February)

Event Time Altitude Azimuth Distance (km) Brightness Sun altitude
Rises 22:33:17 0° 172° (S) 2,930 6.2 -7.7°
Reaches altitude 10° 22:35:29 10° 174° (S) 2,023 5.4 -8.2°
Maximum altitude 22:39:53 71° 258° (WSW) 677 3.0 -9.2°
Drops below altitude 10° 22:44:17 10° 343° (NNW) 2,028 5.2 -10.2°
Sets 22:46:30 0° 345° (NNW) 2,938 6.0 -10.7°
